Flag for Canada Weather past 2 weeks in Windsor, Ontario, Canada

Now
68 °F

Overcast.


Feels Like: 68 °F
Forecast: 60 / 81 °F
Wind: 5 mph from Southeast

Location: Windsor Weather Station

Current Time: May 29, 2015 at 8:40:03 AM

Latest Report: May 29, 2015 at 8:00 AM


Visibility: 15 mi

Pressure: 30.15 "Hg

Humidity: 73%

Dew point: 59 °F

Location of WindsorLocation

Historic Weather in Windsor — Graph

°F

Windsor temperature yesterday

Maximum temperature yesterday: 77 °F (at 5:00 PM)
Minimum temperature yesterday: 55 °F (at 6:00 AM)
Average temperature yesterday: 68 °F

Past Weeks' High & Low Weather Summary

 TemperatureHumidityPressure
High84 °F (May 26, 5:00 PM)100% (May 16, 1:00 AM)30.50 "Hg (May 16, 1:00 AM)
Low39 °F (May 14, 7:00 AM)23% (May 23, 3:00 PM)29.85 "Hg (May 26, 7:00 PM)
Average63 °F68%30.10 "Hg
* Reported May 14 7:00 AM — May 29 7:00 AM, Windsor, Weather by CustomWeather, © 2015

Note: Actual official high and low records may vary slightly from our data, if they occured in-between our weather recording intervals... More about our weather records

Advertising

Windsor weather history for previous 24 hours

 ConditionsComfort  
Time TempWeatherWind HumidityBarometerVisibility
7:00 AM
Fri, May 29
61 °FScattered clouds.5 mph83%30.15 "Hg15 mi
6:00 AM61 °FPartly cloudy.5 mph83%30.16 "Hg15 mi
5:00 AM61 °FPartly cloudy.3 mph77%30.16 "Hg15 mi
4:00 AM59 °FPassing clouds.5 mph82%30.16 "Hg15 mi
3:00 AM59 °FPassing clouds.6 mph82%30.18 "Hg15 mi
2:00 AM61 °FClear.9 mph72%30.17 "Hg15 mi
1:00 AM59 °FClear.6 mph77%30.19 "Hg15 mi
12:00 AM61 °FPassing clouds.7 mph72%30.20 "Hg15 mi
11:00 PM
Thu, May 28
63 °FPassing clouds.6 mph73%30.22 "Hg15 mi
10:00 PM64 °FPassing clouds.7 mph73%30.21 "Hg15 mi
9:00 PM68 °FPassing clouds.8 mph64%30.20 "Hg15 mi
8:00 PM73 °FScattered clouds.8 mph50%30.22 "Hg15 mi
7:00 PM77 °FPartly sunny.9 mph44%30.21 "Hg15 mi
6:00 PM77 °FPartly sunny.3 mph42%30.22 "Hg15 mi
5:00 PM77 °FPassing clouds.8 mph42%30.22 "Hg15 mi
4:00 PM75 °FPassing clouds.9 mph47%30.23 "Hg15 mi
3:00 PM75 °FPassing clouds.12 mph50%30.25 "Hg15 mi
2:00 PM73 °FPassing clouds.10 mph61%30.27 "Hg15 mi
1:00 PM73 °FPartly sunny.8 mph61%30.27 "Hg15 mi
12:00 PM72 °FScattered clouds.3 mph65%30.27 "Hg15 mi
11:00 AM72 °FPassing clouds.3 mph61%30.24 "Hg15 mi
10:00 AM70 °FSunny.6 mph60%30.24 "Hg15 mi
9:00 AM68 °FSunny.2 mph69%30.23 "Hg15 mi
8:00 AM64 °FSunny.No wind83%30.23 "Hg10 mi
Weather by CustomWeather, © 2015

See weather overviewHow to use our weather pages